Location: Gad�tanya
(48.0500°N, 20.8500°E)
Time: 11:53:53
(UTC+00:00)

Lacrosse 5 rocket - Pass Details

Date: 05 July 2020
Orbit: 465 x 631 km, 57.0° (Epoch: 14 August)

Event Time Altitude Azimuth Distance (km) Brightness Sun altitude
Rises 21:16:43 0° 298° (WNW) 2,763 5.7 -16.8°
Reaches altitude 10° 21:19:21 10° 312° (NW) 1,832 4.9 -16.9°
Maximum altitude 21:22:46 24° 8° (N) 1,128 3.6 -17.1°
Drops below altitude 10° 21:26:01 10° 64° (ENE) 1,745 4.0 -17.3°
Sets 21:28:28 0° 79° (E) 2,600 4.7 -17.4°
